Regional Weather Roundup
Issued by NWS

Home | Current Version | Previous Version | Text Only | Print | Product List | Glossary On
Versions: 1 2 3 4 5 6 7 8 9 10 11 12 13 14 15 16 17 18 19 20 21 22 23 24 25 26 27 28 29 30 31 32 33 34 35 36 37 38 39 40 41 42 43 44 45 46 47 48 49 50
000
ASUS43 KMPX 011603
RWRMN
MINNESOTA STATE WEATHER ROUNDUP...
NATIONAL WEATHER SERVICE TWIN CITIES/CHANHASSEN MN
1000 AM CST TUE SEP 01 2015


NOTE: "FAIR" INDICATES FEW OR NO CLOUDS BELOW 12,000 FEET WITH NO
SIGNIFICANT WEATHER AND/OR OBSTRUCTIONS TO VISIBILITY. N/A MEANS
CURRENT SKY AND/OR WEATHER CONDITIONS ARE NOT AVAILABLE.

MNZ060>063-068>070-011700-
...TWIN CITIES METRO...

CITY           SKY/WX    TMP DP  RH WIND       PRES   REMARKS
TWIN CITIES    PTSUNNY   80  69  69 S8        29.92S
ST PAUL        PTSUNNY   78  71  79 SE8       29.92F
CRYSTAL        PTSUNNY   82  68  62 SW5       29.90S
BLAINE         CLOUDY    81  70  69 S5        29.91
EDEN PRAIRIE   PTSUNNY   80  70  71 VRB5      29.90F
LAKEVILLE      PTSUNNY   79  72  78 CALM      29.93S
SOUTH ST PAUL  PTSUNNY   78  70  75 CALM      29.92S
$$
MNZ001>005-007-008-013>017-022>024-027-028-011700-
...NORTHWEST MINNESOTA...

CITY           SKY/WX    TMP DP  RH WIND       PRES   REMARKS
BEMIDJI        SUNNY     74  58  57 S3        29.92S
HALLOCK        SUNNY     75  54  46 S9        29.85S
ROSEAU         SUNNY     75  57  53 SW6       29.88S
WARROAD        SUNNY     73  59  60 SW5       29.89R
THIEF RVR FALL SUNNY     75  55  50 S7        29.89R
CROOKSTON      SUNNY     75  59  57 S8        29.89R
FOSSTON        SUNNY     75  55  50 S6        29.91S
DETROIT LAKES  SUNNY     75  63  64 S8        29.93R
PARK RAPIDS    SUNNY     76  57  51 SE9       29.93R
$$
MNZ006-009>011-018-025>026-011700-
...NORTH CENTRAL MINNESOTA...

CITY           SKY/WX    TMP DP  RH WIND       PRES   REMARKS
BAUDETTE       SUNNY     76  53  44 SW8       29.88S
FLAG ISLAND    SUNNY     72  52  49 SW6       29.86R
INTL FALLS     PTSUNNY   70  58  65 CALM      29.90S
WASKISH        MOSUNNY   72  64  78 CALM      29.91R
BIG FORK       CLOUDY    72  63  73 CALM      29.93R
LONGVILLE      PTSUNNY   75  61  60 CALM      29.93S
GRAND RAPIDS     N/A     73  59  60 CALM      29.94R
COOK           CLOUDY    70  61  73 CALM      29.93S
$$
MNZ012-019>021-037-011700-
...NORTHEAST MINNESOTA...

CITY           SKY/WX    TMP DP  RH WIND       PRES   REMARKS
DULUTH         CLOUDY    75  67  76 S3        29.92S
ELY            CLOUDY    72  63  73 CALM      29.92S
HIBBING        CLOUDY    74  58  57 CALM      29.93S
EVELETH        CLOUDY    72  59  64 CALM      29.93F
DULUTH HARBOR  CLOUDY    75  70  83 SW5       29.90S
TWO HARBORS    CLOUDY    79  70  73 CALM      29.89S
SILVER BAY     PTSUNNY   79  63  57 CALM      29.89R
GRAND MARAIS     N/A     59  57  93 SW6       29.87S
G MARAIS ARPRT CLOUDY    73  63  68 CALM      29.94S
$$
MNZ029>031-032-039>041-046>048-054>057-064-011700-
...WEST CENTRAL MINNESOTA...

CITY           SKY/WX    TMP DP  RH WIND       PRES   REMARKS
FERGUS FALLS   SUNNY     79  61  53 SE7       29.88F
WHEATON        SUNNY     77  64  65 E8        29.90S
MORRIS         MOSUNNY   79  66  65 E10       29.89R
ALEXANDRIA     MOSUNNY   77  65  66 E12       29.93S
WADENA         SUNNY     77  63  61 SE6       29.92S
GLENWOOD       PTSUNNY   79  66  65 E13       29.91F
APPLETON       MOSUNNY   79  68  69 SE8       29.88S
BENSON         PTSUNNY   79  66  65 SE6       29.89S
MADISON        MOSUNNY   75  70  83 E7        29.89S
$$
MNZ033>034-036-042>043-049>051-058-059-011700-
...CENTRAL MINNESOTA...

CITY           SKY/WX    TMP DP  RH WIND       PRES   REMARKS
ST CLOUD       CLOUDY    74  69  85 E6        29.92S
AITKIN         PTSUNNY   79  66  65 CALM      29.92R
PINE RIVER     MOSUNNY   75  63  64 E3        29.96S
BRAINERD       PTSUNNY   77  64  64 E3        29.92S
STAPLES        MOSUNNY   77  63  61 SE5       29.92S
LITTLE FALLS   PTSUNNY   73  64  73 SE5       29.92S
LITCHFIELD     CLOUDY    73  72  94 CALM      29.92F
HUTCHINSON     SUNNY     77  71  82 CALM      29.92S
$$
MNZ037-044-045-052-053-011700-
...EAST CENTRAL MINNESOTA...

CITY           SKY/WX    TMP DP  RH WIND       PRES   REMARKS
PRINCETON      CLOUDY    75  70  83 CALM      29.92S
MORA           CLOUDY    72  66  83 CALM      29.94R
CAMBRIDGE      PTSUNNY   79  66  65 CALM      29.91R
RUSH CITY      PTSUNNY   76  69  80 CALM      29.92S
MOOSE LAKE     CLOUDY    73  68  83 CALM      29.91R
CLOQUET        CLOUDY    73  64  73 CALM      29.93R
$$
MNZ071>073-080-081-089-090-097-098-011700-
...SOUTHWEST MINNESOTA...

CITY           SKY/WX    TMP DP  RH WIND       PRES   REMARKS
MONTEVIDEO     PTSUNNY   79  70  73 S6        29.91S
MARSHALL       CLOUDY    73  66  78 S7        29.92R
REDWOOD FALLS  CLOUDY    75  68  78 CALM      29.90S
PIPESTONE      CLOUDY    73  70  88 SE5       29.92S
WINDOM         PTSUNNY   81  70  69 CALM      29.92S
WORTHINGTON    PTSUNNY   73  66  78 S6        29.92S
JACKSON        MOSUNNY   79  70  73 S5        29.93S
$$
MNZ065>067-074>077-082>085-091>093-011700-
...SOUTH CENTRAL MINNESOTA...

CITY           SKY/WX    TMP DP  RH WIND       PRES   REMARKS
MANKATO        SUNNY     77  70  78 SE6       29.93S
NEW ULM        MOSUNNY   75  72  88 SE6       29.90F
ST JAMES       MOSUNNY   81  73  78 SE7       29.92S
FAIRMONT       SUNNY     77  66  69 S8        29.92S
GLENCOE        MOSUNNY   80  72  76 SE6       29.90F
FARIBAULT      MOSUNNY   81  72  74 S3        29.94S
OWATONNA       MOSUNNY   79  72  78 S5        29.95R
$$
MNZ078>079-086>088-094>096-011700-
...SOUTHEAST MINNESOTA...

CITY           SKY/WX    TMP DP  RH WIND       PRES   REMARKS
ROCHESTER      MOSUNNY   79  72  79 S9        29.97S
RED WING       PTSUNNY   81  72  74 CALM      29.92S
DODGE CENTER   PTSUNNY   77  72  83 SW7       29.97R
AUSTIN           N/A     79  72  78 S8        29.96S
$$


USA.gov is the U.S. government's official web portal to all federal, state and local government web resources and services.